FW1477 Weather Reports


time (UTC)temp
F
wind
direction
speed
knots
gust
knots
rain 1hr
in
rain 24hr
in
rain mn
in
humidity
%
barometer
mb
20260502164017 68 0.0 0.0 0.00 0.00 0.00 33 1018.7
20260502163016 68 0.0 0.0 0.00 0.00 0.00 34 1018.8
20260502162017 68 0.0 0.0 0.00 0.00 0.00 33 1018.7
20260502161016 67 0.0 0.0 0.00 0.00 0.00 37 1018.6
20260502152037 65 0.0 0.0 0.00 0.00 0.00 41 1017.9
20260502151016 63 0.0 0.0 0.00 0.00 0.00 45 1017.4
20260502123016 53 248 7.0 13.0 0.00 0.00 0.00 71 1013.0
20260502122016 52 248 10.4 16.5 0.00 0.00 0.00 72 1012.9
20260502121016 53 248 7.8 13.9 0.00 0.00 0.00 71 1013.1
20260502115015 53 270 5.2 10.4 0.00 0.00 0.00 71 1013.1
20260502114015 53 248 5.2 12.2 0.00 0.00 0.00 72 1013.1
20260502113016 54 248 6.1 13.0 0.00 0.00 0.00 71 1013.2
20260502112036 54 248 10.4 18.2 0.00 0.00 0.00 70 1012.6
20260502111037 54 270 3.5 13.9 0.00 0.00 0.00 71 1012.6
20260502110037 55 270 4.3 15.6 0.00 0.00 0.00 71 1012.7
20260502105015 55 270 13.0 18.2 0.00 0.00 0.00 70 1013.0
20260502104016 55 270 13.0 18.2 0.00 0.00 0.00 72 1013.1
20260502103016 55 248 11.3 16.5 0.00 0.00 0.00 71 1013.0
20260502102015 56 248 10.4 16.5 0.00 0.00 0.00 71 1012.9
20260502101015 56 248 11.3 15.6 0.00 0.00 0.00 71 1012.8
20260502091015 57 248 2.6 9.6 0.00 0.00 0.00 68 1013.2
20260502071018 60 248 3.5 9.6 0.00 0.00 0.00 62 1013.6
20260502070018 60 248 1.7 7.8 0.00 0.00 0.00 62 1013.8
20260502065017 60 248 2.6 8.7 0.00 0.00 0.00 62 1013.9
20260502064038 60 248 1.7 7.0 0.00 0.00 0.00 61 1013.8
20260502063037 61 248 1.7 6.1 0.00 0.00 0.00 61 1014.2
20260502062017 61 248 3.5 7.8 0.00 0.00 0.00 60 1014.2
20260502061037 62 248 6.1 12.2 0.00 0.00 0.00 60 1014.2
20260502060017 62 248 5.2 12.2 0.00 0.00 0.00 59 1014.0
20260502055015 62 248 5.2 8.7 0.00 0.00 0.00 55 1014.0
20260502054035 63 248 1.7 5.2 0.00 0.00 0.00 53 1014.4
20260502053035 63 248 5.2 12.2 0.00 0.00 0.00 52 1014.4
20260502052015 64 270 8.7 13.9 0.00 0.00 0.00 51 1014.2
20260502051017 64 248 7.8 13.9 0.00 0.00 0.00 50 1014.0
20260502050018 64 248 7.8 13.0 0.00 0.00 0.00 47 1014.1
20260502045017 65 248 7.8 15.6 0.00 0.00 0.00 46 1014.5
20260502044015 65 248 8.7 13.9 0.00 0.00 0.00 44 1014.2
20260502043017 65 248 10.4 17.4 0.00 0.00 0.00 42 1014.0
20260502042017 66 248 12.2 19.1 0.00 0.00 0.00 40 1013.8
20260502041017 66 248 12.2 18.2 0.00 0.00 0.00 38 1013.8
20260502040017 67 248 11.3 17.4 0.00 0.00 0.00 37 1013.8
20260502035017 67 248 11.3 16.5 0.00 0.00 0.00 36 1014.1
20260502034026 67 248 10.4 16.5 0.00 0.00 0.00 34 1013.9
20260502033017 68 248 10.4 16.5 0.00 0.00 0.00 34 1013.8
20260502032017 68 248 10.4 15.6 0.00 0.00 0.00 32 1013.7
20260502031037 69 248 9.6 15.6 0.00 0.00 0.00 31 1014.0
20260502030017 69 248 7.8 12.2 0.00 0.00 0.00 30 1014.0
20260502025016 70 270 7.0 12.2 0.00 0.00 0.00 29 1013.9
20260502024017 70 270 7.8 13.9 0.00 0.00 0.00 28 1013.8
20260502023038 71 270 8.7 13.9 0.00 0.00 0.00 29 1013.5
20260502022016 71 248 8.7 16.5 0.00 0.00 0.00 27 1013.6
20260502021016 71 248 13.0 20.9 0.00 0.00 0.00 26 1013.2
20260502020016 72 0.0 13.9 0.00 0.00 0.00 25 1013.1
20260502015058 72 0.0 0.0 0.00 0.00 0.00 24 1012.8
20260502014016 73 0.0 0.0 0.00 0.00 0.00 26 1012.5
20260502013017 73 0.0 0.0 0.00 0.00 0.00 26 1012.8
20260502012017 74 0.0 0.0 0.00 0.00 0.00 26 1012.7
20260502011016 74 0.0 0.0 0.00 0.00 0.00 26 1012.8
20260502010016 74 0.0 0.0 0.00 0.00 0.00 26 1012.8
20260502005017 75 0.0 0.0 0.00 0.00 0.00 27 1013.2
20260502004036 75 0.0 0.0 0.00 0.00 0.00 26 1013.0
20260502003016 75 0.0 0.0 0.00 0.00 0.00 27 1012.8
20260502002017 76 0.0 0.0 0.00 0.00 0.00 27 1012.8
20260502001016 76 0.0 0.0 0.00 0.00 0.00 27 1012.6
20260502000016 77 0.0 0.0 0.00 0.00 0.00 28 1012.6
20260501235016 77 0.0 0.0 0.00 0.00 0.00 28 1012.7
20260501234057 77 0.0 0.0 0.00 0.00 0.00 29 1012.2
20260501233016 77 0.0 0.0 0.00 0.00 0.00 29 1012.6
20260501232036 77 0.0 0.0 0.00 0.00 0.00 29 1012.5
20260501231016 77 0.0 0.0 0.00 0.00 0.00 28 1012.5
20260501230016 78 0.0 0.0 0.00 0.00 0.00 27 1012.4
20260501225016 78 0.0 0.0 0.00 0.00 0.00 28 1012.4
20260501224016 78 0.0 0.0 0.00 0.00 0.00 28 1012.4
20260501223017 79 0.0 0.0 0.00 0.00 0.00 28 1012.8
20260501222037 79 0.0 0.0 0.00 0.00 0.00 27 1012.7
20260501221021 78 0.0 0.0 0.00 0.00 0.00 28 1012.3
20260501220016 79 0.0 0.0 0.00 0.00 0.00 28 1012.7
20260501215016 78 0.0 0.0 0.00 0.00 0.00 28 1012.5
20260501214020 79 0.0 0.0 0.00 0.00 0.00 28 1012.8
20260501213036 79 0.0 0.0 0.00 0.00 0.00 29 1013.1
20260501212015 79 0.0 0.0 0.00 0.00 0.00 28 1013.2
20260501211036 79 0.0 0.0 0.00 0.00 0.00 28 1013.2
20260501210015 80 0.0 0.0 0.00 0.00 0.00 27 1013.1
20260501205036 80 0.0 0.0 0.00 0.00 0.00 27 1013.1
20260501204016 80 0.0 0.0 0.00 0.00 0.00 26 1013.1
20260501203016 80 0.0 0.0 0.00 0.00 0.00 26 1013.3
20260501202016 80 0.0 0.0 0.00 0.00 0.00 26 1013.4
20260501201015 79 0.0 0.0 0.00 0.00 0.00 24 1013.4
20260501200015 79 0.0 0.0 0.00 0.00 0.00 23 1013.4
20260501195036 80 0.0 0.0 0.00 0.00 0.00 23 1013.4
20260501194015 79 0.0 0.0 0.00 0.00 0.00 24 1013.7
20260501193015 80 0.0 0.0 0.00 0.00 0.00 23 1013.6
20260501192016 79 0.0 0.0 0.00 0.00 0.00 24 1013.9
20260501191015 79 0.0 0.0 0.00 0.00 0.00 22 1013.8
20260501190035 79 0.0 0.0 0.00 0.00 0.00 21 1014.0
20260501185016 79 0.0 0.0 0.00 0.00 0.00 20 1013.9
20260501184016 79 0.0 0.0 0.00 0.00 0.00 18 1014.0
20260501183015 79 0.0 0.0 0.00 0.00 0.00 18 1014.1
20260501182015 79 0.0 0.0 0.00 0.00 0.00 18 1014.4
20260501181015 80 0.0 0.0 0.00 0.00 0.00 16 1014.4
20260501180015 79 0.0 0.0 0.00 0.00 0.00 16 1014.5
20260501175016 79 0.0 0.0 0.00 0.00 0.00 16 1014.6
20260501174017 78 0.0 0.0 0.00 0.00 0.00 16 1014.3